C/2017 M3 ( PanSTARRS )

Japanese version
Home page
Updated on August 28, 2018

---------------------------------------------------------------------

* Profile

Discovery Date June 20, 2017
Magnitude 21.1 mag
Discoverer Pan-STARRS 1 telescope (Haleakala)

* Orbital Elements

Epoch 2017 May 7.0 TT = JDT 2457880.5
T 2017 Apr. 28.15732 TT                                 MPCW
q   4.6561093            (2000.0)            P               Q
z  +0.0057522      Peri.  110.30885     -0.36920963     -0.92170393
 +/-0.0000025      Node     6.99726     -0.21826558     -0.03840075
e   0.9732170      Incl.   77.50712     +0.90335175     -0.38598866
From 40 observations 2017 June 20-2018 Apr. 23, mean residual 0".3.

* Magnitudes Graph

        m1 = 10.5 + 5 log d + 10.0 log r

---------------------------------------------------------------------

The orbital elements are published on M.P.E.C. 2018-H105.
The magnitudes graphs are made with Comet for Windows.

---------------------------------------------------------------------

Copyright(C) Seiichi Yoshida (comet@aerith.net). All rights reserved.